Wind_Speed
44 45 45 43 43 43 43 42 42 42 42 42 41 40 39 39 37 36 35 34 33 32 32 32 31 31 30 30 30 30 30 30 29 30 30 30 30 30 31 31 32 32 33 33
45 44 42 43 43 43 43 44 43 43 43 42 42 42 41 41 39 38 37 36 35 34 33 32 32 31 31 30 30 31 31 31 30 30 31 31 31 31 32 33 33 33 34 35
45 42 42 43 44 43 43 43 43 42 43 43 43 44 43 42 40 39 38 37 36 35 34 33 32 32 31 31 31 31 32 32 32 32 32 32 32 33 33 34 35 35 36 36
45 45 45 44 44 43 42 41 42 43 44 44 44 45 43 42 41 40 39 37 36 36 35 34 33 32 32 32 32 32 33 33 33 33 33 33 33 34 35 35 36 36 37 38
46 45 45 45 43 43 41 40 41 43 44 46 45 46 43 42 41 40 39 38 37 36 36 35 34 33 33 33 33 33 33 34 34 34 34 34 35 35 36 36 37 38 38 39
46 45 45 44 43 43 42 41 42 43 44 47 46 46 45 43 40 39 38 38 37 37 36 36 35 34 34 34 34 34 34 34 35 35 35 35 36 36 37 37 38 39 40 40
47 46 46 45 45 44 44 43 43 44 46 47 45 46 45 43 40 38 38 38 37 37 37 36 35 35 34 34 34 34 35 35 35 35 36 36 37 37 38 38 39 40 40 42
46 46 46 45 45 44 44 44 44 45 46 45 45 46 45 42 40 38 38 38 38 37 37 36 35 35 34 35 35 35 35 36 36 36 37 37 38 38 39 40 41 41 42 43
44 45 44 44 44 44 44 44 43 44 45 44 45 45 44 42 40 39 38 38 37 37 37 37 36 35 35 35 35 36 36 37 37 37 38 39 39 40 40 41 42 42 43 43
39 42 44 44 44 44 43 42 43 45 45 45 44 44 42 40 39 39 38 38 37 37 37 37 36 36 35 36 36 37 38 38 38 39 39 39 40 41 42 42 42 43 44 45
36 39 41 44 45 44 44 44 44 44 45 45 45 43 42 40 39 38 37 37 37 38 38 38 37 37 37 37 37 38 38 39 39 39 40 40 41 42 42 43 43 44 45 46
36 37 38 41 43 43 44 44 43 44 45 45 44 43 42 41 39 39 38 38 38 38 38 38 38 38 38 38 38 39 39 39 40 40 41 41 42 42 43 44 44 45 46 48
36 37 37 39 42 43 44 44 43 44 45 45 45 44 41 41 40 40 39 39 39 38 38 38 38 38 38 39 39 40 40 40 41 41 42 42 43 43 44 45 46 47 48 49
35 37 37 37 38 40 41 42 43 44 45 46 45 44 42 41 41 40 40 39 39 39 39 39 38 38 38 39 39 40 40 41 41 42 43 43 44 44 45 46 47 48 49 49
33 35 35 35 36 38 39 40 42 43 43 43 43 43 41 40 40 40 39 39 39 39 39 39 39 39 39 39 40 40 41 41 42 43 43 44 45 46 47 47 48 48 49 49
32 33 33 34 33 34 37 39 40 41 42 42 41 41 40 39 39 39 39 39 39 39 39 39 39 39 39 39 40 40 41 42 42 43 44 45 45 46 47 47 48 48 49 49
33 31 31 33 33 33 35 37 38 39 39 40 40 39 39 39 39 40 39 39 38 37 38 38 39 39 40 40 40 40 41 42 43 44 45 45 46 46 47 47 48 49 49 50
30 30 29 29 31 33 33 34 35 36 37 38 39 38 39 39 39 39 39 38 38 38 37 37 38 40 40 41 41 42 42 43 44 44 45 46 46 46 47 47 48 49 50 51
30 30 30 30 31 32 32 32 33 34 35 36 38 39 40 40 40 40 40 40 40 39 39 38 39 39 40 41 42 43 43 44 44 45 45 45 46 46 46 47 48 49 50 50
30 32 32 32 32 32 31 31 32 33 34 35 36 38 39 40 40 39 40 40 40 40 40 40 40 41 41 41 42 43 44 44 45 45 45 45 45 45 46 46 47 48 49 49
29 31 32 31 32 32 31 31 31 33 33 33 34 36 37 39 39 38 39 39 40 41 41 41 41 41 42 42 43 43 43 44 44 44 45 45 45 46 46 47 47 48 48 47
29 29 30 31 31 31 30 31 31 31 31 32 33 33 34 36 37 38 38 39 39 40 41 41 42 42 42 43 43 43 43 43 43 44 44 45 46 46 46 46 46 46 46 46
28 29 29 29 29 29 30 31 31 31 31 31 32 32 34 35 36 37 38 39 39 39 40 40 40 41 41 41 41 41 42 42 43 43 44 44 45 45 45 45 45 45 45 45
25 27 27 28 28 29 29 30 30 30 31 31 31 32 33 34 34 35 36 38 39 40 40 40 40 40 40 41 42 42 42 42 42 42 43 43 43 43 43 44 44 45 45 44
22 24 25 25 27 28 30 30 29 30 30 31 32 32 32 33 33 34 35 36 37 38 39 39 40 41 41 41 41 41 42 42 42 42 42 42 42 41 42 43 43 43 43 43
19 21 22 23 24 26 27 28 29 29 30 30 31 32 32 33 33 33 34 35 36 36 37 38 38 39 40 40 40 41 41 41 41 41 41 41 41 41 41 42 42 42 42 42
Wind_Direction
226 226 227 228 228 229 228 228 228 229 230 231 231 230 230 231 232 233 234 235 235 236 238 239 241 243 244 245 246 247 250 252 254 255 258 260 263 265 267 268 270 271 273 274
226 226 226 227 227 228 228 228 229 229 230 231 231 231 231 232 232 233 234 236 236 237 239 241 242 244 246 246 247 248 250 253 255 256 258 261 263 266 267 269 271 272 274 275
228 227 226 226 227 228 229 230 230 231 231 231 231 230 230 231 233 233 235 236 237 238 240 241 243 245 246 247 248 249 251 253 255 257 259 261 264 266 268 270 272 273 275 276
227 225 225 225 226 228 229 230 230 231 232 232 232 232 230 232 233 233 235 236 237 239 241 242 243 245 246 247 248 250 252 254 256 258 260 262 264 267 268 271 273 274 276 277
225 224 225 225 226 228 229 229 231 232 233 234 233 234 231 232 233 233 235 237 238 240 241 242 243 244 245 247 248 250 252 255 257 259 261 263 265 268 270 272 274 276 277 278
224 224 225 225 225 226 227 228 230 232 233 235 233 236 233 232 233 234 236 237 238 239 240 242 243 244 246 248 250 252 254 256 258 260 262 264 266 269 271 273 275 276 278 279
221 223 223 223 223 224 225 226 228 230 232 235 234 236 235 233 233 234 235 236 238 239 240 242 244 245 247 249 251 252 254 256 258 260 262 265 268 270 272 274 275 277 279 280
223 223 223 223 223 225 226 228 230 233 234 236 235 237 236 235 235 235 236 237 238 240 241 242 244 245 246 248 250 252 254 256 259 261 263 266 268 270 272 274 276 278 279 281
223 224 223 225 225 226 226 228 230 233 235 236 236 237 237 237 237 237 238 238 239 240 242 243 244 245 246 248 250 252 255 257 260 262 264 267 269 271 273 275 277 278 280 281
222 224 224 224 225 226 227 229 230 231 233 235 237 237 237 237 238 238 239 239 240 241 243 243 244 246 247 249 250 253 255 258 261 263 265 267 269 272 274 276 277 278 280 282
221 223 224 224 225 226 226 227 229 232 234 236 237 238 238 238 238 239 239 240 241 242 243 244 245 247 248 249 252 254 257 259 262 264 266 268 270 272 275 276 277 279 280 282
221 223 225 225 226 226 227 229 231 231 233 236 238 240 240 240 240 241 241 241 242 243 244 246 247 248 250 251 253 255 258 260 262 264 266 269 271 273 275 276 277 279 281 283
222 224 226 225 226 226 227 228 230 232 233 236 238 240 241 242 242 242 243 243 244 245 245 247 248 249 250 252 254 256 258 260 262 264 267 269 272 274 275 276 278 279 281 284
222 224 227 229 230 230 230 230 230 232 233 235 237 239 241 243 244 244 245 245 245 246 247 249 250 251 252 253 255 257 259 261 263 265 267 270 272 274 275 276 278 280 282 284
225 226 227 229 230 230 231 231 232 233 234 236 237 238 240 242 242 243 244 245 246 247 248 249 251 251 253 254 256 257 259 261 264 266 268 271 272 273 275 276 278 280 282 284
225 226 228 228 229 231 231 230 231 233 233 235 236 237 238 239 240 241 242 244 246 247 248 250 251 252 254 255 257 257 259 261 264 266 269 271 272 273 275 276 278 280 282 284
225 226 228 230 229 231 231 229 231 232 233 234 236 237 237 237 238 240 242 244 245 247 248 250 252 253 254 255 257 258 260 263 265 268 270 271 272 274 275 276 278 280 282 284
226 227 227 228 230 234 232 231 232 234 234 234 235 236 237 237 238 240 241 243 244 246 247 249 250 252 254 256 258 260 262 265 267 269 271 271 272 274 275 276 278 280 282 284
224 226 227 227 228 232 232 230 232 234 235 235 236 236 237 237 238 239 242 243 245 245 247 249 250 252 255 257 259 261 263 266 268 270 271 271 272 273 275 276 278 280 282 283
223 225 226 228 231 234 233 233 234 235 236 236 237 239 240 240 241 243 244 245 246 247 249 250 252 254 256 258 261 263 265 267 268 270 270 270 271 273 276 277 278 280 282 283
224 225 227 230 232 234 235 235 236 237 238 238 239 240 241 242 243 245 246 248 249 250 251 252 254 257 259 260 262 264 266 267 268 269 269 270 272 274 276 277 278 280 282 283
226 227 228 232 234 234 234 236 237 239 238 240 241 242 243 243 244 245 247 249 250 252 253 255 257 258 260 262 263 265 266 267 268 269 270 271 273 275 276 277 279 280 282 284
229 229 230 232 234 235 236 238 239 239 240 241 242 242 243 244 245 246 248 250 251 253 255 256 258 259 262 263 264 266 267 268 270 270 271 272 274 275 276 277 278 280 283 284
230 231 231 232 233 233 234 236 238 240 241 242 243 244 245 246 248 248 249 250 252 254 256 257 259 261 263 264 265 266 268 270 271 271 272 273 274 275 276 277 279 281 282 283
231 232 232 233 233 233 234 236 238 240 241 242 242 244 246 247 248 250 250 250 251 253 256 258 259 261 262 264 265 267 268 269 270 271 272 274 275 275 276 278 280 281 282 283
233 234 234 233 233 233 234 236 237 240 242 243 243 245 246 247 248 250 251 252 253 254 257 258 260 261 262 263 265 267 268 270 270 271 273 274 275 276 278 279 280 282 282 282
Height
5655 5661 5667 5675 5680 5685 5690 5694 5699 5705 5709 5713 5717 5722 5726 5730 5734 5738 5742 5746 5750 5753 5757 5759 5762 5765 5767 5770 5772 5773 5775 5777 5778 5779 5780 5780 5781 5781 5781 5781 5781 5780 5780 5779
5647 5653 5662 5665 5670 5675 5680 5685 5691 5696 5700 5704 5708 5713 5718 5722 5727 5731 5735 5739 5743 5746 5749 5752 5755 5758 5760 5763 5765 5766 5768 5770 5771 5772 5773 5773 5774 5774 5774 5773 5773 5773 5772 5771
5638 5648 5652 5656 5661 5666 5672 5678 5683 5688 5691 5694 5699 5704 5709 5714 5718 5723 5727 5731 5735 5738 5742 5745 5748 5750 5753 5755 5757 5759 5760 5762 5763 5764 5765 5766 5766 5766 5766 5766 5765 5764 5764 5763
5628 5635 5641 5646 5652 5658 5664 5670 5674 5678 5681 5685 5690 5694 5702 5706 5710 5715 5720 5724 5727 5731 5734 5737 5740 5743 5745 5748 5749 5751 5753 5754 5755 5756 5757 5758 5758 5758 5758 5757 5757 5756 5755 5754
5620 5626 5631 5637 5645 5650 5656 5661 5665 5668 5672 5676 5681 5685 5693 5697 5702 5708 5712 5716 5720 5723 5726 5729 5732 5735 5737 5739 5741 5743 5745 5746 5747 5748 5749 5750 5750 5750 5749 5749 5748 5747 5746 5744
5611 5616 5622 5630 5636 5641 5646 5651 5655 5658 5661 5666 5673 5676 5683 5689 5695 5700 5704 5708 5712 5715 5718 5721 5724 5727 5729 5731 5733 5735 5736 5738 5739 5740 5740 5741 5741 5741 5741 5740 5739 5738 5737 5735
5599 5605 5612 5619 5624 5630 5635 5641 5645 5647 5650 5656 5664 5666 5674 5682 5687 5692 5696 5699 5703 5706 5709 5712 5715 5718 5721 5723 5725 5726 5728 5729 5730 5731 5731 5732 5732 5732 5731 5731 5730 5728 5727 5725
5590 5597 5603 5609 5615 5621 5627 5632 5637 5641 5644 5650 5654 5657 5666 5673 5678 5682 5687 5690 5694 5697 5701 5704 5707 5710 5712 5714 5716 5717 5719 5720 5721 5722 5722 5723 5723 5722 5722 5721 5720 5718 5717 5715
5582 5589 5595 5601 5608 5613 5618 5622 5629 5633 5636 5640 5644 5650 5657 5662 5668 5673 5678 5681 5685 5688 5692 5695 5698 5701 5703 5705 5707 5708 5710 5711 5712 5712 5713 5713 5713 5712 5712 5711 5709 5707 5705 5703
5573 5579 5586 5592 5597 5602 5609 5615 5618 5622 5626 5630 5636 5641 5648 5654 5659 5664 5668 5672 5676 5679 5682 5686 5689 5692 5694 5696 5697 5699 5700 5701 5702 5703 5703 5703 5703 5702 5701 5700 5698 5696 5694 5692
5565 5571 5577 5582 5587 5594 5600 5605 5609 5614 5618 5623 5627 5635 5639 5645 5650 5655 5659 5662 5666 5670 5673 5676 5679 5682 5684 5686 5688 5689 5690 5691 5692 5693 5693 5693 5692 5691 5690 5689 5687 5686 5683 5681
5556 5562 5567 5573 5580 5585 5591 5596 5601 5606 5610 5615 5620 5628 5630 5635 5640 5645 5649 5653 5656 5660 5663 5666 5669 5672 5674 5676 5678 5679 5680 5681 5682 5682 5682 5682 5681 5680 5679 5678 5676 5674 5672 5670
5549 5554 5559 5564 5571 5575 5580 5586 5592 5597 5602 5606 5611 5619 5621 5626 5630 5635 5639 5643 5646 5650 5653 5656 5659 5662 5664 5666 5667 5669 5670 5671 5671 5672 5672 5671 5670 5669 5668 5666 5664 5662 5660 5658
5541 5547 5553 5558 5563 5568 5573 5579 5583 5588 5592 5597 5603 5608 5612 5616 5621 5625 5629 5633 5636 5640 5643 5646 5649 5651 5653 5655 5657 5658 5659 5660 5660 5661 5660 5660 5659 5658 5656 5654 5653 5650 5648 5646
5534 5539 5545 5550 5554 5559 5565 5570 5574 5579 5584 5589 5594 5598 5603 5607 5611 5615 5618 5622 5626 5629 5632 5635 5638 5640 5642 5644 5646 5647 5648 5649 5649 5649 5649 5648 5647 5646 5644 5643 5641 5639 5636 5633
5527 5532 5537 5542 5546 5550 5555 5560 5565 5570 5574 5579 5584 5589 5593 5597 5600 5604 5608 5612 5615 5619 5622 5625 5627 5630 5631 5633 5635 5636 5637 5637 5637 5637 5637 5636 5635 5634 5632 5631 5629 5626 5624 5621
5521 5526 5530 5534 5539 5542 5547 5552 5556 5561 5566 5571 5575 5581 5584 5588 5591 5594 5598 5602 5605 5609 5612 5615 5617 5619 5621 5622 5623 5624 5625 5625 5626 5625 5625 5624 5623 5622 5620 5618 5616 5614 5611 5608
5515 5519 5523 5527 5531 5535 5542 5544 5549 5553 5558 5562 5566 5570 5574 5578 5581 5584 5588 5592 5595 5598 5601 5604 5606 5608 5610 5611 5612 5613 5613 5614 5614 5613 5613 5612 5611 5609 5608 5606 5604 5601 5599 5596
5509 5513 5516 5520 5523 5527 5533 5537 5541 5545 5549 5553 5557 5561 5564 5568 5571 5575 5579 5582 5585 5588 5590 5593 5595 5596 5598 5599 5601 5601 5602 5602 5602 5601 5600 5599 5598 5597 5596 5594 5592 5589 5586 5583
5502 5506 5510 5513 5516 5521 5527 5530 5533 5538 5541 5546 5549 5552 5556 5559 5563 5567 5569 5572 5575 5577 5579 5582 5584 5585 5587 5588 5589 5590 5590 5590 5589 5589 5588 5587 5586 5585 5583 5581 5579 5576 5574 5570
5496 5499 5503 5506 5509 5513 5519 5522 5526 5531 5535 5538 5540 5543 5547 5550 5554 5557 5559 5562 5564 5566 5569 5571 5573 5574 5575 5576 5577 5578 5578 5577 5577 5576 5576 5575 5574 5572 5571 5569 5566 5564 5561 5558
5489 5493 5496 5499 5503 5509 5511 5514 5518 5522 5526 5529 5532 5535 5538 5541 5544 5547 5549 5551 5554 5556 5558 5560 5561 5563 5564 5565 5566 5566 5566 5565 5565 5564 5563 5563 5561 5560 5558 5556 5554 5551 5549 5546
5483 5487 5490 5494 5498 5501 5504 5507 5510 5514 5517 5520 5523 5526 5529 5531 5534 5537 5539 5541 5543 5545 5547 5549 5550 5551 5552 5553 5554 5554 5554 5553 5553 5552 5551 5550 5549 5547 5546 5544 5542 5540 5537 5534
5477 5480 5483 5487 5490 5493 5496 5499 5502 5505 5508 5511 5514 5517 5519 5522 5524 5527 5529 5531 5533 5535 5536 5538 5539 5540 5541 5541 5542 5542 5542 5541 5541 5540 5539 5538 5537 5535 5534 5532 5530 5528 5525 5523
5472 5474 5477 5480 5483 5486 5489 5492 5495 5498 5500 5503 5505 5508 5510 5512 5515 5517 5519 5520 5522 5524 5525 5527 5528 5529 5529 5530 5530 5530 5530 5530 5529 5528 5527 5526 5525 5523 5522 5520 5518 5516 5513 5511
5467 5469 5471 5474 5476 5479 5482 5484 5487 5490 5492 5495 5497 5499 5501 5503 5505 5507 5509 5510 5512 5513 5515 5516 5516 5517 5518 5518 5518 5518 5518 5517 5517 5516 5515 5514 5513 5512 5510 5508 5506 5503 5501 5499